TimeCST,TemperatureF,Dew PointF,Humidity,Sea Level PressureIn,VisibilityMPH,Wind Direction,Wind SpeedMPH,Gust SpeedMPH,PrecipitationIn,Events,Conditions,WindDirDegrees,DateUTC
12:15 AM,21.2,14.0,74,30.13,10.0,Calm,Calm,-,N/A,,Partly Cloudy,0,2013-02-19 06:15:00
12:35 AM,21.2,12.2,68,30.14,10.0,Calm,Calm,-,N/A,,Clear,0,2013-02-19 06:35:00
12:55 AM,19.4,10.4,68,30.14,10.0,West,3.5,-,N/A,,Clear,280,2013-02-19 06:55:00
1:15 AM,19.4,10.4,68,30.15,10.0,WNW,5.8,-,N/A,,Clear,300,2013-02-19 07:15:00
1:35 AM,19.4,12.2,74,30.15,10.0,Calm,Calm,-,N/A,,Clear,0,2013-02-19 07:35:00
1:55 AM,19.4,10.4,68,30.16,10.0,WNW,5.8,-,N/A,,Clear,300,2013-02-19 07:55:00
2:15 AM,19.4,10.4,68,30.17,10.0,West,6.9,-,N/A,,Clear,280,2013-02-19 08:15:00
2:35 AM,19.4,12.2,74,30.18,10.0,West,6.9,-,N/A,,Clear,270,2013-02-19 08:35:00
2:55 AM,19.4,12.2,74,30.19,10.0,West,8.1,-,N/A,,Clear,270,2013-02-19 08:55:00
3:15 AM,19.4,12.2,74,30.19,10.0,WNW,8.1,-,N/A,,Clear,290,2013-02-19 09:15:00
3:35 AM,19.4,10.4,68,30.19,10.0,West,4.6,-,N/A,,Clear,280,2013-02-19 09:35:00
3:55 AM,19.4,12.2,74,30.19,10.0,West,3.5,-,N/A,,Clear,260,2013-02-19 09:55:00
4:15 AM,19.4,12.2,74,30.19,10.0,WSW,5.8,-,N/A,,Clear,250,2013-02-19 10:15:00
4:35 AM,17.6,10.4,73,30.20,10.0,Calm,Calm,-,N/A,,Clear,0,2013-02-19 10:35:00
4:55 AM,19.4,12.2,74,30.20,10.0,NNW,3.5,-,N/A,,Clear,330,2013-02-19 10:55:00
5:15 AM,15.8,10.4,79,30.21,10.0,NNW,6.9,-,N/A,,Clear,340,2013-02-19 11:15:00
5:55 AM,15.8,8.6,73,30.22,10.0,North,5.8,-,N/A,,Clear,360,2013-02-19 11:55:00
6:15 AM,17.6,10.4,73,30.23,10.0,North,4.6,-,N/A,,Clear,10,2013-02-19 12:15:00
6:35 AM,17.6,10.4,73,30.23,10.0,North,6.9,-,N/A,,Clear,10,2013-02-19 12:35:00
6:55 AM,17.6,10.4,73,30.24,10.0,North,5.8,-,N/A,,Clear,10,2013-02-19 12:55:00
7:15 AM,17.6,10.4,73,30.24,10.0,North,6.9,-,N/A,,Clear,10,2013-02-19 13:15:00
7:35 AM,19.4,12.2,74,30.26,10.0,North,5.8,-,N/A,,Clear,10,2013-02-19 13:35:00
7:55 AM,21.2,15.8,80,30.26,10.0,NNE,8.1,-,N/A,,Clear,20,2013-02-19 13:55:00
8:15 AM,24.8,15.8,69,30.28,10.0,NNE,9.2,-,N/A,,Clear,20,2013-02-19 14:15:00
8:35 AM,24.8,15.8,69,30.28,10.0,North,12.7,-,N/A,,Clear,10,2013-02-19 14:35:00
8:55 AM,26.6,15.8,64,30.30,10.0,North,16.1,-,N/A,,Clear,10,2013-02-19 14:55:00
9:35 AM,28.4,15.8,59,30.30,10.0,NNE,15.0,-,N/A,,Clear,20,2013-02-19 15:35:00
9:55 AM,30.2,15.8,55,30.31,10.0,North,12.7,-,N/A,,Clear,10,2013-02-19 15:55:00
10:15 AM,32.0,15.8,51,30.31,10.0,NNE,12.7,16.1,N/A,,Clear,30,2013-02-19 16:15:00
10:35 AM,32.0,14.0,48,30.31,10.0,NNE,11.5,-,N/A,,Clear,20,2013-02-19 16:35:00
10:55 AM,33.8,14.0,44,30.31,10.0,NNE,10.4,-,N/A,,Clear,30,2013-02-19 16:55:00
11:15 AM,33.8,14.0,44,30.31,10.0,North,9.2,-,N/A,,Clear,10,2013-02-19 17:15:00
11:35 AM,33.8,15.8,48,30.31,10.0,NNE,8.1,-,N/A,,Clear,30,2013-02-19 17:35:00
12:15 PM,35.6,15.8,44,30.30,10.0,NE,8.1,-,N/A,,Clear,50,2013-02-19 18:15:00
12:35 PM,37.4,15.8,41,30.29,10.0,East,8.1,-,N/A,,Clear,80,2013-02-19 18:35:00
12:55 PM,37.4,15.8,41,30.28,10.0,ENE,6.9,-,N/A,,Clear,60,2013-02-19 18:55:00
1:15 PM,37.4,15.8,41,30.26,10.0,ENE,8.1,-,N/A,,Clear,60,2013-02-19 19:15:00
1:35 PM,39.2,15.8,39,30.25,10.0,East,6.9,-,N/A,,Clear,90,2013-02-19 19:35:00
1:55 PM,39.2,15.8,39,30.24,10.0,East,3.5,-,N/A,,Clear,80,2013-02-19 19:55:00
2:15 PM,39.2,17.6,42,30.23,10.0,East,6.9,-,N/A,,Clear,100,2013-02-19 20:15:00
2:35 PM,41.0,15.8,36,30.22,10.0,ESE,4.6,-,N/A,,Clear,120,2013-02-19 20:35:00
2:55 PM,42.8,17.6,36,30.21,10.0,East,9.2,-,N/A,,Clear,90,2013-02-19 20:55:00
3:15 PM,42.8,17.6,36,30.20,10.0,ESE,10.4,-,N/A,,Clear,110,2013-02-19 21:15:00
3:35 PM,42.8,17.6,36,30.19,10.0,ESE,10.4,-,N/A,,Clear,120,2013-02-19 21:35:00
3:55 PM,42.8,17.6,36,30.18,10.0,East,15.0,-,N/A,,Clear,90,2013-02-19 21:55:00
4:15 PM,42.8,17.6,36,30.17,10.0,East,12.7,16.1,N/A,,Clear,100,2013-02-19 22:15:00
4:35 PM,42.8,15.8,34,30.17,10.0,ESE,15.0,-,N/A,,Clear,110,2013-02-19 22:35:00
4:55 PM,41.0,15.8,36,30.16,10.0,ESE,13.8,-,N/A,,Clear,110,2013-02-19 22:55:00
5:15 PM,41.0,17.6,39,30.16,10.0,East,11.5,-,N/A,,Clear,100,2013-02-19 23:15:00
6:35 PM,37.4,15.8,41,30.18,10.0,East,9.2,-,N/A,,Clear,100,2013-02-20 00:35:00
6:55 PM,35.6,15.8,44,30.17,10.0,East,12.7,-,N/A,,Clear,90,2013-02-20 00:55:00
7:15 PM,33.8,15.8,48,30.17,10.0,East,9.2,-,N/A,,Clear,90,2013-02-20 01:15:00
7:35 PM,33.8,15.8,48,30.17,10.0,East,12.7,-,N/A,,Clear,90,2013-02-20 01:35:00
7:55 PM,33.8,14.0,44,30.17,10.0,East,12.7,-,N/A,,Clear,100,2013-02-20 01:55:00
8:15 PM,32.0,14.0,48,30.19,10.0,East,11.5,-,N/A,,Clear,100,2013-02-20 02:15:00
8:35 PM,32.0,14.0,48,30.20,10.0,East,10.4,-,N/A,,Clear,100,2013-02-20 02:35:00
8:55 PM,30.2,12.2,47,30.19,10.0,East,13.8,-,N/A,,Clear,90,2013-02-20 02:55:00
9:15 PM,30.2,12.2,47,30.19,10.0,East,15.0,-,N/A,,Clear,90,2013-02-20 03:15:00
9:55 PM,30.2,10.4,44,30.20,10.0,East,13.8,-,N/A,,Clear,100,2013-02-20 03:55:00
10:15 PM,30.2,10.4,44,30.20,10.0,East,13.8,-,N/A,,Clear,100,2013-02-20 04:15:00
10:35 PM,30.2,10.4,44,30.20,10.0,East,13.8,-,N/A,,Clear,100,2013-02-20 04:35:00
10:55 PM,28.4,8.6,43,30.20,10.0,East,13.8,-,N/A,,Clear,100,2013-02-20 04:55:00
11:15 PM,28.4,8.6,43,30.19,10.0,East,15.0,-,N/A,,Clear,100,2013-02-20 05:15:00
11:35 PM,28.4,8.6,43,30.19,10.0,ESE,12.7,-,N/A,,Clear,110,2013-02-20 05:35:00